Preview of NWS' New Version of Forecast
This preview is not operational and should not be used for support decisions.

Regional Weather Roundup (RWR)

Issued by National Weather Service (NWS)

                            
000
ASUS46 KPQR 230110
RWROR 

OREGON REGIONAL WEATHER ROUNDUP
NATIONAL WEATHER SERVICE PORTLAND OR
600 PM PDT THU AUG 22 2019

NOTE: "FAIR" INDICATES FEW OR NO CLOUDS BELOW 12,000 FEET WITH
NO SIGNIFICANT WEATHER AND/OR OBSTRUCTIONS TO VISIBILITY.

ORZ001>013-230200-
NORTHWEST OREGON

  
CITY           SKY/WX    TMP DP  RH WIND       PRES   REMARKS
ASTORIA        SUNNY     64  52  64 NW14      30.06F                  
TILLAMOOK      SUNNY     64  54  68 W15G23    30.07S                  
NEWPORT        MOSUNNY   63  55  77 N15G23    30.07F                  
FLORENCE       FAIR      63  54  72 N18G25    30.01S                  
PORTLAND       MOSUNNY   73  53  49 NE5       30.02F                  
VANCOUVER WA   SUNNY     73  51  46 CALM      30.02F                  
SCAPPOOSE      SUNNY     73  52  47 N12       30.02S                  
HILLSBORO      SUNNY     73  53  49 NE12      30.02S                  
AURORA         SUNNY     75  50  41 NE8       30.03S                  
MCMINNVILLE    SUNNY     77  49  37 NE8       30.00F                  
SALEM          SUNNY     74  48  39 NE9       30.00S                  
CORVALLIS      SUNNY     76  50  40 NE10      30.00F                  
EUGENE         MOSUNNY   76  49  38 N12       30.00F                  
CRESWELL       SUNNY     75  50  41 NW12      29.98S                  
$$

ORZ021-028-230200-
SOUTHWEST OREGON

  
CITY           SKY/WX    TMP DP  RH WIND       PRES   REMARKS
NORTH BEND     SUNNY     65  55  70 N18G30    30.02S                  
BROOKINGS      SUNNY     81  60  48 NW9       29.84F                  
ROSEBURG       MOSUNNY   75  55  49 VRB5      29.97F                  
SEXTON SUMMIT  MOSUNNY   62  57  83 N9        30.03S                  
GRANTS PASS    FAIR      77  55  47 NW14G21   29.95F                  
MEDFORD        SUNNY     83  52  34 W6        29.89F                  
$$

ORZ014>016-041-230200-
COLUMBIA GORGE

  
CITY           SKY/WX    TMP DP  RH WIND       PRES   REMARKS
TROUTDALE      MOSUNNY   72  53  51 VRB3      30.03S                  
HOOD RIVER     SUNNY     70  52  52 W10G20    29.97S                  
THE DALLES     SUNNY     74  53  48 NW21G29   29.91S                  
$$

ORZ029>031-041-044-049-050-061>064-502-503-505>511-230200-
EASTERN OREGON

  
CITY           SKY/WX    TMP DP  RH WIND       PRES   REMARKS
MADRAS         SUNNY     77  41  27 NW7       30.00S                  
REDMOND        SUNNY     77  37  23 N10       30.00S                  
BEND           SUNNY     77  45  31 NE8       30.01S                  
PRINEVILLE     SUNNY     73  30  20 NW8       30.00S                  
KLAMATH FALLS  SUNNY     76  33  21 NW17      29.98F                  
LAKEVIEW       SUNNY     74  38  27 N17       30.02S                  
HERMISTON      SUNNY     81  49  32 W3        29.90S                  
PENDLETON      SUNNY     78  47  33 VRB5      29.93S                  
JOHN DAY       SUNNY     76  28  16 N9        30.00S                  
MEACHAM        SUNNY     68  41  37 W3        30.02F                  
LA GRANDE      SUNNY     77  46  33 N9G18     29.97S                  
BAKER CITY     SUNNY     76  45  33 N16       29.97R                  
BURNS          SUNNY     78  36  21 W12       29.99S                  
ROME             N/A     80  38  22 N10       29.95S                  
ONTARIO        SUNNY     87  40  19 N14       29.88R                  
$$